EHI
0 0 0 0 0 0 0 0 1 0 0 0 0 0 0 0 0 0 0 0 0 0 0 0 0 0 0 0 1 1 1 1 1 0 0 0 0 0 0 0 0 0 0
0 0 0 0 0 0 0 0 1 0 0 0 0 0 0 0 0 0 0 0 0 0 0 0 0 0 0 0 0 0 1 1 1 0 0 0 0 0 0 0 0 0 1
0 0 0 0 0 0 0 0 1 0 0 1 1 0 0 0 0 0 0 0 0 0 0 0 0 0 0 0 0 0 0 1 1 0 0 0 0 0 0 0 0 0 1
0 0 0 0 0 0 0 0 1 0 0 1 1 0 0 0 0 0 0 0 0 0 0 0 0 0 0 0 0 0 0 1 0 0 0 0 0 0 0 0 0 0 1
0 0 0 0 0 0 0 0 1 1 0 1 1 0 0 0 0 0 0 0 0 0 0 0 0 0 0 0 0 0 0 0 0 0 0 0 0 0 1 1 0 0 0
0 0 0 0 0 0 0 0 0 1 0 0 0 0 0 0 0 0 0 0 0 0 0 0 0 0 0 0 0 0 0 0 0 0 0 0 0 0 1 1 1 0 0
0 0 0 0 0 0 0 0 0 1 1 0 0 0 0 0 0 0 0 0 0 0 0 0 0 0 0 0 0 0 0 0 0 0 0 0 0 0 1 1 1 1 1
0 0 0 0 0 0 0 0 0 1 2 2 1 0 1 1 1 1 1 0 0 0 0 0 0 0 0 0 0 0 0 0 0 0 0 0 0 0 0 0 1 1 2
0 0 0 0 0 0 0 0 0 1 2 3 2 1 1 2 2 2 1 1 0 0 0 0 0 0 0 0 0 0 0 0 0 0 0 0 0 0 0 0 0 1 1
0 0 0 0 0 0 0 0 0 0 1 1 1 1 2 3 2 2 1 0 0 0 0 0 0 0 0 0 0 0 0 0 0 0 0 0 0 0 0 0 0 0 0
0 0 0 0 0 0 0 0 0 0 0 0 0 1 2 2 1 1 0 0 0 0 0 0 0 0 0 0 0 0 0 0 0 0 0 0 0 0 0 0 0 0 1
0 0 0 0 0 0 0 0 0 0 0 0 0 0 1 1 0 0 0 0 0 0 0 0 0 0 0 0 0 0 0 0 0 0 0 0 0 0 0 0 0 0 1
0 0 0 0 0 0 0 0 0 0 0 0 0 0 0 0 0 0 0 0 0 0 0 0 0 0 0 0 0 0 0 0 0 0 0 0 0 0 0 0 0 0 1
0 0 0 0 0 0 0 0 0 0 0 0 0 0 0 0 0 0 0 0 0 0 0 0 0 0 0 0 0 0 0 0 0 0 0 0 0 0 0 0 0 0 0
0 0 0 0 0 0 0 0 0 0 0 0 0 0 0 0 0 0 0 0 0 0 0 0 0 0 0 0 0 0 0 0 0 0 0 0 0 0 0 0 0 0 0
0 0 0 0 0 0 0 0 0 0 0 0 0 0 0 0 0 0 0 0 0 0 0 0 0 0 0 0 0 0 0 0 0 0 0 0 0 0 0 0 0 0 0
0 0 0 0 0 0 0 0 0 0 0 0 0 0 0 0 0 0 0 0 0 0 0 0 0 0 0 0 0 0 0 0 0 0 0 0 0 0 0 0 0 0 0
0 0 0 0 0 0 0 0 0 0 0 0 0 0 0 0 0 0 0 0 0 0 0 0 0 0 0 0 0 0 0 0 0 0 0 0 0 0 0 0 0 0 0
0 0 0 0 0 0 0 0 0 0 0 0 0 0 0 0 0 0 0 0 0 0 0 0 0 0 0 0 0 0 0 0 0 0 0 0 0 0 0 0 0 0 0
0 0 0 0 0 0 0 0 0 0 0 0 0 0 0 0 0 0 0 0 0 0 0 0 0 0 0 0 0 0 0 0 0 0 0 0 0 0 0 0 0 0 0
0 0 0 0 0 0 0 0 0 0 0 0 0 0 0 0 0 0 0 0 0 0 0 0 0 0 0 0 0 0 0 0 0 0 0 0 0 0 0 0 0 0 0
0 0 0 0 0 0 0 0 0 0 0 0 0 0 0 0 0 0 0 0 0 0 0 0 0 0 0 0 0 0 0 0 0 0 0 0 0 0 0 0 0 0 0
0 0 0 0 0 0 0 0 0 0 0 0 0 0 0 0 0 0 0 0 0 0 0 0 0 0 0 0 0 0 0 0 0 0 0 0 0 0 0 0 0 0 0
0 0 0 0 0 0 0 0 0 0 0 0 0 0 0 0 0 0 0 0 0 0 0 0 0 0 0 0 0 0 0 0 0 0 0 0 0 0 0 0 0 0 0
0 0 0 0 0 0 0 0 0 0 0 0 0 0 0 0 0 0 0 0 0 0 0 0 0 0 0 0 0 0 0 0 0 0 0 0 0 0 0 0 0 0 0
0 0 0 0 0 0 0 0 0 0 0 0 0 0 0 0 0 0 0 0 0 0 0 0 0 0 0 0 0 0 0 0 0 0 0 0 0 0 0 0 0 0 0
Wind_Speed
1 1 1 4 6 7 7 7 8 8 9 9 9 9 9 10 9 10 10 10 10 10 10 9 9 9 9 9 9 9 8 9 9 9 9 8 8 8 8 8 7 4 7
2 1 3 5 6 6 7 7 8 8 8 9 9 9 9 10 9 9 9 9 9 9 9 9 9 9 9 9 8 8 9 9 9 9 9 8 8 8 7 7 7 4 7
2 2 3 5 6 6 7 7 8 8 8 8 8 8 9 9 9 9 9 9 9 9 9 9 9 9 9 8 8 8 9 9 10 9 8 5 5 8 8 7 7 7 7
3 2 2 5 6 7 7 7 8 8 8 8 8 8 8 8 8 9 9 9 9 9 9 9 9 9 9 9 9 9 10 10 10 9 5 4 4 7 8 8 8 7 7
3 2 2 5 6 7 7 7 7 7 7 8 8 7 8 8 8 8 8 8 8 8 8 8 8 8 8 9 9 10 10 10 10 8 5 4 3 7 8 8 8 8 7
3 2 2 5 6 7 7 7 7 7 7 7 7 7 7 7 7 8 8 8 8 8 8 8 8 8 9 9 9 10 10 10 8 5 4 4 3 6 8 8 7 7 7
3 2 2 5 5 6 6 6 7 7 7 7 7 7 7 7 7 7 7 8 8 8 8 8 8 9 9 9 10 10 10 9 6 4 4 3 3 7 7 7 7 7 7
3 2 2 3 4 5 5 5 6 6 6 6 6 6 6 6 6 6 7 8 8 8 9 9 8 9 9 9 9 10 9 9 6 5 3 3 5 7 7 7 7 7 8
3 3 2 2 2 3 4 4 5 5 5 5 5 5 5 5 5 6 6 7 8 8 9 9 9 9 9 9 9 10 10 10 5 3 4 3 6 8 8 7 7 8 8
2 2 2 2 3 3 2 3 3 4 4 4 4 4 4 4 5 5 6 6 7 8 9 9 9 10 10 10 10 10 10 8 4 4 2 3 7 8 8 8 8 8 8
1 1 1 1 2 2 1 2 2 3 3 4 3 3 4 3 3 3 4 5 7 7 8 9 10 10 10 10 11 11 8 4 4 3 2 5 8 8 8 8 8 8 8
1 1 1 1 0 1 1 2 2 2 2 2 2 2 2 2 2 3 4 6 7 7 8 9 10 9 8 5 7 8 4 4 4 3 3 7 8 8 9 8 8 8 8
2 1 1 2 1 1 0 1 1 1 1 1 2 1 2 2 2 3 2 3 4 6 5 6 6 4 4 4 4 4 4 4 3 3 4 8 8 8 8 8 8 9 8
2 2 1 2 2 1 1 0 0 0 1 1 1 1 2 1 1 2 2 2 2 2 3 3 3 5 5 5 5 5 5 3 3 3 4 9 8 9 9 9 9 9 9
2 2 2 2 2 2 1 1 1 1 1 0 1 1 2 1 1 2 2 2 2 2 3 3 3 4 4 4 5 5 5 5 5 4 4 9 10 9 9 9 9 9 8
3 2 2 2 2 2 2 1 1 1 1 1 1 1 2 2 2 2 2 2 2 2 3 3 3 4 4 4 5 5 4 4 4 5 4 6 10 10 10 9 9 9 9
3 2 2 2 2 2 2 2 1 1 1 1 1 1 2 2 3 3 2 2 2 2 3 3 4 3 4 4 4 4 4 4 4 4 4 4 5 9 10 9 9 10 9
2 2 2 2 2 2 2 2 1 1 1 1 1 1 2 2 3 3 3 2 2 3 3 3 3 4 3 3 3 3 3 3 4 4 4 4 4 4 7 11 10 10 10
3 2 2 1 2 2 2 1 1 1 1 1 1 1 1 2 3 3 3 2 3 3 3 3 3 3 3 3 3 3 3 3 3 4 4 5 4 4 4 7 11 11 10
2 2 2 2 2 2 2 2 1 1 1 1 1 1 2 2 3 3 3 3 3 3 3 3 4 3 3 3 4 4 3 3 3 4 4 4 4 5 5 5 5 7 11
2 2 2 2 2 2 2 1 1 1 0 0 1 1 2 2 3 3 3 3 3 3 3 4 4 4 2 2 3 3 3 4 4 3 3 3 4 4 4 5 4 4 4
2 2 2 2 2 2 1 1 2 2 1 1 0 1 1 2 3 3 3 3 3 3 4 4 3 3 1 1 2 2 2 3 4 4 3 3 3 3 4 5 4 4 4
3 3 3 3 2 2 2 2 2 2 2 1 1 0 0 2 2 3 3 3 3 3 3 3 3 4 2 0 1 2 2 1 1 3 3 3 3 3 3 3 4 4 4
3 3 3 3 3 2 3 3 4 3 2 2 1 1 1 1 2 2 3 3 3 3 3 3 2 2 3 2 0 1 1 3 2 1 2 2 3 3 3 3 3 3 3
2 2 2 3 3 2 3 4 4 2 2 1 1 1 1 1 1 2 3 3 3 3 3 2 2 2 2 2 2 1 1 1 2 2 0 1 2 2 2 2 2 2 3
1 1 2 3 2 2 3 3 3 3 2 2 2 2 1 0 1 1 2 2 2 2 3 2 2 2 2 2 1 2 2 2 2 2 2 1 1 1 2 2 2 2 2
Wind_Direction
270 273 155 119 115 112 111 107 105 105 105 102 100 99 99 98 95 93 91 88 83 80 80 79 79 82 79 79 77 76 80 82 81 79 77 77 77 78 80 83 84 80 93
185 197 142 119 115 109 111 111 109 107 106 104 101 99 100 100 97 94 92 88 85 83 80 77 75 77 77 75 75 77 79 82 80 77 72 67 70 72 72 76 87 89 91
127 133 135 126 122 112 110 108 109 109 107 105 102 101 99 98 98 95 93 91 87 82 80 78 75 78 77 78 78 80 82 80 78 74 66 47 53 69 72 72 80 84 87
121 111 126 128 124 116 113 109 107 108 109 108 105 102 102 101 98 95 93 90 88 82 78 76 75 77 76 75 77 81 81 78 76 72 56 43 45 69 69 71 76 79 81
105 98 127 132 127 122 117 113 109 111 112 111 107 103 102 101 97 93 91 88 85 82 80 77 75 74 75 76 80 81 79 76 73 64 50 45 42 67 67 68 72 74 79
100 94 124 133 133 131 128 123 117 113 114 111 107 102 100 98 96 92 89 86 82 80 79 78 76 73 77 79 80 80 78 75 68 56 49 42 41 64 66 65 68 70 74
103 90 108 124 130 131 129 124 122 120 119 114 108 105 99 96 94 91 86 82 78 78 80 79 77 76 79 81 79 78 77 78 68 57 48 41 51 64 67 67 67 68 68
102 80 75 120 125 124 125 122 121 123 124 118 113 109 105 99 93 88 83 80 77 75 79 79 79 76 76 78 78 77 77 75 66 56 46 42 65 68 67 69 69 68 70
85 77 46 41 73 104 118 120 118 116 117 116 114 108 102 96 91 87 85 82 78 77 77 76 78 75 74 76 77 74 73 68 58 44 48 40 66 70 68 67 66 68 68
75 67 51 33 38 38 42 107 112 108 102 103 105 103 94 83 78 74 74 78 80 78 77 77 78 77 74 75 74 70 66 58 47 42 31 55 66 70 68 67 69 68 67
115 72 70 44 32 28 20 65 77 91 85 75 70 74 69 55 51 55 69 76 79 76 76 75 76 77 73 71 70 66 60 48 41 34 29 61 67 70 68 66 68 68 70
194 205 174 168 156 33 37 47 32 44 54 55 51 53 56 59 52 52 56 69 72 73 72 73 74 73 68 60 61 62 53 45 38 26 41 57 63 66 64 63 66 68 70
206 217 193 182 162 140 107 68 39 43 44 45 51 55 63 60 53 50 48 49 58 65 64 65 64 65 65 64 61 56 51 47 36 25 31 49 59 64 64 64 64 67 69
190 220 212 174 167 178 174 133 129 97 71 51 46 80 85 74 65 66 65 61 64 69 73 67 71 71 69 65 65 61 52 47 39 27 29 44 55 62 63 65 65 66 66
197 217 214 189 189 188 176 183 167 168 155 131 91 106 113 108 102 89 77 73 74 79 84 79 76 77 71 65 64 65 57 49 43 35 23 39 51 58 61 62 62 66 68
210 213 206 205 199 178 180 190 204 180 161 137 133 140 129 130 129 111 95 82 77 85 89 87 84 84 76 71 64 59 55 50 45 40 31 30 41 50 57 61 61 63 66
208 203 203 198 176 180 188 192 184 175 156 141 153 141 139 141 135 125 116 102 96 98 96 91 82 80 81 72 59 53 54 49 45 40 38 34 28 36 43 52 56 59 62
194 188 205 196 165 177 175 174 163 132 132 142 143 136 137 143 138 127 122 116 112 105 103 102 94 86 77 71 60 46 45 46 44 43 45 40 33 28 31 40 46 51 56
183 177 177 168 156 164 153 129 121 115 126 139 125 120 131 133 134 128 128 126 118 108 106 112 96 101 97 85 75 59 46 43 42 46 45 42 39 34 29 30 35 39 44
165 163 153 141 139 134 110 92 85 81 72 92 115 123 127 123 126 125 126 121 115 108 100 107 105 91 98 96 82 63 46 43 48 44 40 40 40 37 34 30 27 27 34
149 146 150 151 145 129 116 127 133 140 149 95 136 127 134 132 133 131 131 124 121 122 129 125 114 100 88 96 83 56 36 43 49 40 34 42 38 32 36 34 34 29 22
176 174 165 169 161 163 152 152 146 141 144 157 88 82 112 132 140 143 138 137 134 127 124 127 123 117 118 95 102 90 37 14 19 30 33 44 33 30 34 34 35 32 26
194 193 185 180 176 177 154 126 106 77 60 60 63 79 76 129 138 137 141 138 140 140 149 154 147 139 149 125 106 129 131 171 340 359 22 35 32 31 20 21 32 25 25
213 198 178 170 175 180 162 154 152 158 168 191 186 176 117 126 137 137 136 139 142 141 150 163 150 150 147 162 105 72 134 148 143 16 349 5 28 32 19 19 18 17 18
197 187 172 163 179 178 165 163 157 157 167 146 133 123 110 116 133 140 142 141 145 152 158 161 150 157 156 162 157 139 102 85 119 142 215 335 6 10 14 6 10 10 13
165 151 151 164 185 172 163 157 158 158 148 139 159 162 162 140 137 144 140 144 150 155 163 172 166 168 165 159 156 156 160 159 166 154 167 202 324 334 2 4 7 1 4